Location: Pettit
(39.0209°N, 79.7181°W)
Time: 12:04:44
(UTC+00:00)

ISS - Pass Details

Date: 23 April 2026
Orbit: 414 x 424 km, 51.6° (Epoch: 11 May)

Event Time Altitude Azimuth Distance (km) Brightness Sun altitude
Exits shadow 07:22:51 10° 68° (ENE) 1,488 -0.3 -30.7°
Drops below altitude 10° 07:22:52 10° 68° (ENE) 1,497 -0.3 -30.7°
Sets 07:25:05 0° 59° (ENE) 2,366 1.0 -30.4°
